Flag Weather past 2 weeks in Makkah, Saudi Arabia

Now
86 °F

Sunny.


Feels Like: 84 °F
Forecast: 68 / 88 °F
Wind: No wind

Location: Mecca Airport

Current Time: Nov 27, 2014 at 12:56:41 PM

Latest Report: Nov 27, 2014 at 12:00 PM


Visibility: 10 mi

Pressure: 29.92 "Hg

Humidity: 31%

Dew point: 52 °F

Location of MakkahLocation

Historic Weather in Makkah — Graph

°F

Makkah temperature yesterday

Maximum temperature yesterday: 88 °F (at 2:00 PM)
Minimum temperature yesterday: 66 °F (at 7:00 AM)
Average temperature yesterday: 77 °F

Past Weeks' High & Low Weather Summary

 TemperatureHumidityPressure
High97 °F (Nov 12, 2:00 PM)94% (Nov 16, 4:00 PM)29.98 "Hg (Nov 16, 4:00 PM)
Low66 °F (Nov 26, 7:00 AM)31% (Nov 26, 3:00 PM)29.77 "Hg (Nov 12, 3:00 PM)
Average81 °F66%29.89 "Hg
* Reported Nov 12 11:00 AM — Nov 27 11:00 AM, Makkah, Weather by CustomWeather, © 2014

Note: Actual official high and low records may vary slightly from our data, if they occured in-between our weather recording intervals... More about our weather records

Advertising

Makkah weather history for previous 24 hours

 ConditionsComfort  
Time TempWeatherWind HumidityBarometerVisibility
11:00 AM
Nov 27
82 °FSunny.No wind37%29.95 "Hg10 mi
10:00 AM77 °FSunny.No wind42%29.98 "Hg10 mi
9:00 AM72 °FSunny.No wind53%29.98 "Hg10 mi
8:00 AM68 °FSunny.No wind60%29.95 "Hg10 mi
7:00 AM68 °FSunny.No wind60%29.95 "Hg10 mi
6:00 AM68 °FClear.No wind60%29.95 "Hg10 mi
5:00 AM70 °FClear.No wind57%29.92 "Hg10 mi
4:00 AM70 °FClear.No wind57%29.92 "Hg10 mi
3:00 AM70 °FClear.No wind60%29.92 "Hg10 mi
2:00 AM72 °FClear.No wind57%29.92 "Hg10 mi
1:00 AM72 °FClear.No wind61%29.92 "Hg10 mi
12:00 AM72 °FClear.No wind65%29.95 "Hg10 mi
11:00 PM
Nov 26
73 °FClear.No wind61%29.95 "Hg10 mi
10:00 PM82 °FClear.No wind37%29.95 "Hg10 mi
9:00 PM77 °FClear.2 mph51%29.95 "Hg10 mi
8:00 PM77 °FClear.2 mph61%29.92 "Hg10 mi
7:00 PM79 °FClear.2 mph45%29.92 "Hg10 mi
6:00 PM82 °FClear.No wind37%29.89 "Hg10 mi
5:00 PM86 °FSunny.2 mph38%29.89 "Hg10 mi
4:00 PM88 °FSunny.2 mph35%29.86 "Hg10 mi
3:00 PM88 °FSunny.2 mph31%29.89 "Hg10 mi
2:00 PM88 °FSunny.2 mph35%29.89 "Hg10 mi
1:00 PM86 °FSunny.2 mph33%29.89 "Hg10 mi
12:00 PM84 °FSunny.2 mph33%29.92 "Hg10 mi
Weather by CustomWeather, © 2014

See weather overviewHow to use our weather pages